H1 CPF 2 NER 2024 2 3 9 034 01 glonass106 H2 0705201 9106 32275 2024 2 3 0 0 0 2024 2 6 23 45 0 900 1 1 0 0 0 1 H9 10 0 60343 0.00000 0 -16785856.243 -464018.124 -19195872.848 10 0 60343 900.00000 0 -18797585.568 -1479051.349 -17173776.916 10 0 60343 1800.00000 0 -20639750.094 -2218378.516 -14817969.139 10 0 60343 2700.00000 0 -22249185.852 -2697235.129 -12174220.818 10 0 60343 3600.00000 0 -23569039.493 -2942692.110 -9293902.663 10 0 60343 4500.00000 0 -24551096.459 -2992263.583 -6232985.649 10 0 60343 5400.00000 0 -25157765.789 -2892072.621 -3050951.480 10 0 60343 6300.00000 0 -25363638.094 -2694653.366 190366.008 10 0 60343 7200.00000 0 -25156551.108 -2456483.339 3427985.561 10 0 60343 8100.00000 0 -24538117.965 -2235351.182 6599005.439 10 0 60343 9000.00000 0 -23523695.972 -2087672.024 9641828.220 10 0 60343 9900.00000 0 -22141797.294 -2065864.787 12497359.159 10 0 60343 10800.00000 0 -20432966.412 -2215903.023 15110154.453 10 0 60343 11700.00000 0 -18448171.616 -2575143.359 17429496.997 10 0 60343 12600.00000 0 -16246778.083 -3170523.751 19410378.725 10 0 60343 13500.00000 0 -13894187.397 -4017208.020 21014370.809 10 0 60343 14400.00000 0 -11459242.061 -5117734.240 22210365.277 10 0 60343 15300.00000 0 -9011503.066 -6461703.357 22975174.248 10 0 60343 16200.00000 0 -6618513.525 -8026021.771 23293975.790 10 0 60343 17100.00000 0 -4343161.653 -9775688.491 23160598.334 10 0 60343 18000.00000 0 -2241251.996 -11665094.786 22577638.540 10 0 60343 18900.00000 0 -359385.031 -13639782.933 21556410.562 10 0 60343 19800.00000 0 1266767.758 -15638591.562 20116727.694 10 0 60343 20700.00000 0 2613722.535 -17596098.868 18286520.379 10 0 60343 21600.00000 0 3670924.177 -19445262.478 16101297.599 10 0 60343 22500.00000 0 4440939.876 -21120146.324 13603461.531 10 0 60343 23400.00000 0 4939098.188 -22558620.920 10841488.224 10 0 60343 24300.00000 0 5192589.606 -23704924.309 7868989.658 10 0 60343 25200.00000 0 5239067.295 -24511976.404 4743675.016 10 0 60343 26100.00000 0 5124807.652 -24943349.515 1526231.100 10 0 60343 27000.00000 0 4902508.929 -24974812.015 -1720856.338 10 0 60343 27900.00000 0 4628821.552 -24595379.948 -4934517.359 10 0 60343 28800.00000 0 4361715.128 -23807831.856 -8052324.701 10 0 60343 29700.00000 0 4157794.117 -22628664.754 -11013708.551 10 0 60343 30600.00000 0 4069676.339 -21087492.636 -13761135.211 10 0 60343 31500.00000 0 4143545.827 -19225912.354 -16241226.403 10 0 60343 32400.00000 0 4416984.104 -17095884.108 -18405797.232 10 0 60343 33300.00000 0 4917172.171 -14757694.031 -20212792.619 10 0 60343 34200.00000 0 5659539.772 -12277583.855 -21627104.056 10 0 60343 35100.00000 0 6646919.640 -9725146.367 -22621251.031 10 0 60343 36000.00000 0 7869243.128 -7170594.966 -23175914.231 10 0 60343 36900.00000 0 9303790.929 -4682020.724 -23280310.387 10 0 60343 37800.00000 0 10915989.286 -2322750.695 -22932401.783 10 0 60343 38700.00000 0 12660719.264 -148916.783 -22138936.451 10 0 60343 39600.00000 0 14484085.115 1792664.272 -20915318.272 10 0 60343 40500.00000 0 16325568.515 3466212.358 -19285309.314 10 0 60343 41400.00000 0 18120479.160 4848236.050 -17280569.928 10 0 60343 42300.00000 0 19802599.573 5928263.988 -14940045.133 10 0 60343 43200.00000 0 21306913.647 6709026.074 -12309208.894 10 0 60343 44100.00000 0 22572304.636 7206078.030 -9439180.640 10 0 60343 45000.00000 0 23544109.306 7446886.211 -6385731.063 10 0 60343 45900.00000 0 24176420.824 7469412.336 -3208196.519 10 0 60343 46800.00000 0 24434043.299 7320258.895 31676.676 10 0 60343 47700.00000 0 24294015.477 7052454.551 3270935.209 10 0 60343 48600.00000 0 23746639.201 6722974.138 6446645.139 10 0 60343 49500.00000 0 22795969.100 6390098.975 9497117.337 10 0 60343 50400.00000 0 21459742.739 6110729.932 12363107.670 10 0 60343 51300.00000 0 19768753.995 5937767.539 14988968.252 10 0 60343 52200.00000 0 17765695.879 5917670.391 17323727.268 10 0 60343 53100.00000 0 15503521.176 6088295.385 19322076.388 10 0 60343 54000.00000 0 13043389.392 6477111.264 20945246.890 10 0 60343 54900.00000 0 10452285.510 7099861.015 22161757.967 10 0 60343 55800.00000 0 7800409.581 7959729.754 22948023.242 10 0 60343 56700.00000 0 5158445.369 9047053.428 23288804.363 10 0 60343 57600.00000 0 2594820.994 10339581.068 23177503.458 10 0 60343 58500.00000 0 173074.702 11803280.179 22616289.200 10 0 60343 59400.00000 0 -2050565.728 13393652.252 21616054.296 10 0 60343 60300.00000 0 -4029290.402 15057504.127 20196205.201 10 0 60343 61200.00000 0 -5727414.949 16735101.851 18384287.948 10 0 60343 62100.00000 0 -7121618.439 18362617.667 16215456.939 10 0 60343 63000.00000 0 -8201661.065 19874768.323 13731796.431 10 0 60343 63900.00000 0 -8970552.645 21207534.660 10981507.381 10 0 60343 64800.00000 0 -9444165.915 22300848.711 8017974.859 10 0 60343 65700.00000 0 -9650311.747 23101135.644 4898733.735 10 0 60343 66600.00000 0 -9627315.998 23563603.569 1684352.536 10 0 60343 67500.00000 0 -9422158.739 23654184.655 -1562742.905 10 0 60343 68400.00000 0 -9088255.014 23351045.391 -4779482.984 10 0 60343 69300.00000 0 -8682971.544 22645601.862 -7903381.145 10 0 60343 70200.00000 0 -8264984.931 21542996.669 -10873749.753 10 0 60343 71100.00000 0 -7891593.640 20062016.765 -13632881.016 10 0 60343 72000.00000 0 -7616097.952 18234454.985 -16127169.642 10 0 60343 72900.00000 0 -7485359.152 16103941.456 -18308155.219 10 0 60343 73800.00000 0 -7537641.523 13724293.221 -20133464.002 10 0 60343 74700.00000 0 -7800828.736 11157450.628 -21567631.876 10 0 60343 75600.00000 0 -8291090.330 8471086.133 -22582792.715 10 0 60343 76500.00000 0 -9012054.994 5735984.742 -23159219.078 10 0 60343 77400.00000 0 -9954526.011 3023304.708 -23285704.983 10 0 60343 78300.00000 0 -11096751.489 401831.919 -22959783.606 10 0 60343 79200.00000 0 -12405238.715 -2064658.475 -22187775.790 10 0 60343 80100.00000 0 -13836079.140 -4319824.117 -20984668.412 10 0 60343 81000.00000 0 -15336729.084 -6316861.199 -19373824.819 10 0 60343 81900.00000 0 -16848172.071 -8020207.120 -17386532.660 10 0 60343 82800.00000 0 -18307372.497 -9406769.944 -15061397.555 10 0 60343 83700.00000 0 -19649917.959 -10466634.356 -12443594.001 10 0 60343 84600.00000 0 -20812739.384 -11203215.663 -9583987.786 10 0 60343 85500.00000 0 -21736794.556 -11632856.467 -6538146.769 10 0 60344 0.00000 0 -22369601.898 -11783884.140 -3365259.580 10 0 60344 900.00000 0 -22667517.815 -11695169.926 -126981.679 10 0 60344 1800.00000 0 -22597660.492 -11414251.381 3113764.127 10 0 60344 2700.00000 0 -22139399.790 -10995098.746 6294014.586 10 0 60344 3600.00000 0 -21285349.145 -10495620.276 9351991.777 10 0 60344 4500.00000 0 -20041817.686 -9975012.949 12228305.054 10 0 60344 5400.00000 0 -18428703.116 -9491071.173 14867105.230 10 0 60344 6300.00000 0 -16478829.502 -9097567.743 17217168.369 10 0 60344 7200.00000 0 -14236757.396 -8841817.952 19232888.180 10 0 60344 8100.00000 0 -11757115.783 -8762529.888 20875157.987 10 0 60344 9000.00000 0 -9102525.088 -8888031.582 22112125.660 10 0 60344 9900.00000 0 -6341197.459 -9234949.735 22919807.373 10 0 60344 10800.00000 0 -3544313.631 -9807395.643 23282548.929 10 0 60344 11700.00000 0 -783284.761 -10596692.677 23193326.284 10 0 60344 12600.00000 0 1872987.775 -11581656.990 22653879.850 10 0 60344 13500.00000 0 4360741.790 -12729420.097 21674680.246 10 0 60344 14400.00000 0 6623764.672 -13996759.288 20274726.148 10 0 60344 15300.00000 0 8615485.641 -15331880.729 18481177.953 10 0 60344 16200.00000 0 10300663.908 -16676581.054 16328833.979 10 0 60344 17100.00000 0 11656603.504 -17968697.367 13859458.816 10 0 60344 18000.00000 0 12673845.067 -19144743.275 11120976.305 10 0 60344 18900.00000 0 13356306.657 -20142620.499 8166542.329 10 0 60344 19800.00000 0 13720868.634 -20904292.216 5053514.947 10 0 60344 20700.00000 0 13796420.839 -21378305.507 1842341.716 10 0 60344 21600.00000 0 13622412.970 -21522056.405 -1404614.243 10 0 60344 22500.00000 0 13246969.966 -21303701.643 -4624286.518 10 0 60344 23400.00000 0 12724652.526 -20703635.890 -7754132.093 10 0 60344 24300.00000 0 12113957.979 -19715471.498 -10733348.277 10 0 60344 25200.00000 0 11474667.605 -18346478.674 -13504055.835 10 0 60344 26100.00000 0 10865152.971 -16617466.694 -16012424.961 10 0 60344 27000.00000 0 10339755.512 -14562110.298 -18209722.005 10 0 60344 27900.00000 0 9946350.313 -12225748.634 -20053256.580 10 0 60344 28800.00000 0 9724197.227 -9663706.277 -21507210.664 10 0 60344 29700.00000 0 9702170.152 -6939205.687 -22543333.842 10 0 60344 30600.00000 0 9897439.331 -4120957.493 -23141491.455 10 0 60344 31500.00000 0 10314662.388 -1280528.288 -23290055.304 10 0 60344 32400.00000 0 10945718.427 1510405.199 -22986129.539 10 0 60344 33300.00000 0 11769996.737 4182802.101 -22235607.522 10 0 60344 34200.00000 0 12755228.346 6672890.077 -21053058.492 10 0 60344 35100.00000 0 13858825.917 8924575.931 -19461446.131 10 0 60344 36000.00000 0 15029676.083 10891534.666 -17491684.160 10 0 60344 36900.00000 0 16210309.211 12538890.737 -15182037.289 10 0 60344 37800.00000 0 17339355.603 13844422.257 -12577378.765 10 0 60344 38700.00000 0 18354184.868 14799238.790 -9728318.652 10 0 60344 39600.00000 0 19193617.257 15407905.326 -6690219.628 10 0 60344 40500.00000 0 19800592.520 15688008.317 -3522119.421 10 0 60344 41400.00000 0 20124683.407 15669183.097 -285580.984 10 0 60344 42300.00000 0 20124347.359 15391644.734 2956506.843 10 0 60344 43200.00000 0 19768820.864 14904285.294 6141154.442 10 0 60344 44100.00000 0 19039576.077 14262418.822 9206497.972 10 0 60344 45000.00000 0 17931277.700 13525270.100 12093003.038 10 0 60344 45900.00000 0 16452199.312 12753313.949 14744621.717 10 0 60344 46800.00000 0 14624081.042 12005577.948 17109880.311 10 0 60344 47700.00000 0 12481434.074 11337022.720 19142876.678 10 0 60344 48600.00000 0 10070320.500 10796110.402 20804168.052 10 0 60344 49500.00000 0 7446658.985 10422663.705 22061532.559 10 0 60344 50400.00000 0 4674126.303 10246105.537 22890590.199 10 0 60344 51300.00000 0 1821741.457 10284153.015 23275271.859 10 0 60344 52200.00000 0 -1038767.925 10542020.533 23208127.866 10 0 60344 53100.00000 0 -3835708.326 11012165.240 22690470.487 10 0 60344 54000.00000 0 -6500159.256 11674585.570 21732347.909 10 0 60344 54900.00000 0 -8968595.629 12497660.442 20352350.199 10 0 60344 55800.00000 0 -11185285.645 13439494.150 18577250.834 10 0 60344 56700.00000 0 -13104365.511 14449710.805 16441490.349 10 0 60344 57600.00000 0 -14691505.629 15471623.361 13986511.600 10 0 60344 58500.00000 0 -15925099.684 16444686.371 11259958.995 10 0 60344 59400.00000 0 -16796927.858 17307129.560 8314756.713 10 0 60344 60300.00000 0 -17312267.251 17998661.439 5208083.371 10 0 60344 61200.00000 0 -17489445.609 18463128.953 2000262.870 10 0 60344 62100.00000 0 -17358857.885 18651020.747 -1246407.122 10 0 60344 63000.00000 0 -16961487.636 18521707.991 -4468866.129 10 0 60344 63900.00000 0 -16346996.250 18045327.575 -7604517.417 10 0 60344 64800.00000 0 -15571461.132 17204227.456 -10592445.941 10 0 60344 65700.00000 0 -14694858.844 15993912.330 -13374603.627 10 0 60344 66600.00000 0 -13778399.875 14423448.831 -15896938.603 10 0 60344 67500.00000 0 -12881827.882 12515312.199 -18110446.222 10 0 60344 68400.00000 0 -12060797.584 10304679.793 -19972121.414 10 0 60344 69300.00000 0 -11364442.025 7838200.068 -21445793.907 10 0 60344 70200.00000 0 -10833231.789 5172287.480 -22502830.312 10 0 60344 71100.00000 0 -10497216.267 2371013.565 -23122689.730 10 0 60344 72000.00000 0 -10374720.984 -496318.764 -23293322.329 10 0 60344 72900.00000 0 -10471555.712 -3357817.587 -23011403.444 10 0 60344 73800.00000 0 -10780766.655 -6141751.888 -22282398.751 10 0 60344 74700.00000 0 -11282943.152 -8779295.411 -21120459.242 10 0 60344 75600.00000 0 -11947066.080 -11207151.112 -19548147.916 10 0 60344 76500.00000 0 -12731862.383 -13369947.742 -17596003.175 10 0 60344 77400.00000 0 -13587608.822 -15222309.462 -15301947.091 10 0 60344 78300.00000 0 -14458309.089 -16730512.928 -12710549.663 10 0 60344 79200.00000 0 -15284152.527 -17873663.431 -9872163.026 10 0 60344 80100.00000 0 -16004150.655 -18644341.685 -6841942.326 10 0 60344 81000.00000 0 -16558840.019 -19048695.047 -3678772.213 10 0 60344 81900.00000 0 -16892936.893 -19105970.287 -444120.027 10 0 60344 82800.00000 0 -16957831.210 -18847508.514 2799161.696 10 0 60344 83700.00000 0 -16713813.849 -18315245.585 5988059.638 10 0 60344 84600.00000 0 -16131942.610 -17559782.154 9060626.765 10 0 60344 85500.00000 0 -15195467.468 -16638105.617 11957187.663 10 0 60345 0.00000 0 -13900754.508 -15611060.899 14621498.138 10 0 60345 900.00000 0 -12257668.198 -14540676.732 17001837.773 10 0 60345 1800.00000 0 -10289397.046 -13487461.892 19052010.683 10 0 60345 2700.00000 0 -8031726.958 -12507783.589 20732240.064 10 0 60345 3600.00000 0 -5531793.576 -11651439.600 22009935.991 10 0 60345 4500.00000 0 -2846364.323 -10959525.468 22860323.560 10 0 60345 5400.00000 0 -39721.031 -10462686.049 23266919.591 10 0 60345 6300.00000 0 2818769.632 -10179824.353 23221849.191 10 0 60345 7200.00000 0 5657297.832 -10117321.407 22725996.485 10 0 60345 8100.00000 0 8404355.581 -10268799.471 21788986.858 10 0 60345 9000.00000 0 10991472.104 -10615438.258 20429001.065 10 0 60345 9900.00000 0 13355826.853 -11126830.730 18672424.641 10 0 60345 10800.00000 0 15442632.528 -11762342.509 16553339.015 10 0 60345 11700.00000 0 17207189.797 -12472917.838 14112863.681 10 0 60345 12600.00000 0 18616528.888 -13203256.245 11398361.666 10 0 60345 13500.00000 0 19650570.276 -13894268.375 8462523.179 10 0 60345 14400.00000 0 20302756.601 -14485707.502 5362344.826 10 0 60345 15300.00000 0 20580129.983 -14918865.628 2158024.004 10 0 60345 16200.00000 0 20502852.074 -15139220.117 -1088210.101 10 0 60345 17100.00000 0 20103187.603 -15098918.669 -4313306.085 10 0 60345 18000.00000 0 19423994.717 -14758997.066 -7454616.633 10 0 60345 18900.00000 0 18516786.244 -14091235.297 -10451117.385 10 0 60345 19800.00000 0 17439444.028 -13079572.801 -13244594.303 10 0 60345 20700.00000 0 16253683.100 -11721022.170 -15780776.094 10 0 60345 21600.00000 0 15022372.884 -10026041.739 -18010389.482 10 0 60345 22500.00000 0 13806828.482 -8018350.221 -19890116.786 10 0 60345 23400.00000 0 12664186.205 -5734190.035 -21383437.202 10 0 60345 24300.00000 0 11644973.746 -3221068.994 -22461335.709 10 0 60345 25200.00000 0 10790976.998 -536031.785 -23102866.081 10 0 60345 26100.00000 0 10133492.972 2256467.648 -23295557.356 10 0 60345 27000.00000 0 9692041.882 5087005.212 -23035656.111 10 0 60345 27900.00000 0 9473592.176 7883836.662 -22328199.984 10 0 60345 28800.00000 0 9472330.766 10575649.035 -21186920.984 10 0 60345 29700.00000 0 9669987.813 13094299.868 -19633980.336 10 0 60345 30600.00000 0 10036702.158 15377430.870 -17699539.715 10 0 60345 31500.00000 0 10532390.789 17370847.824 -15421176.845 10 0 60345 32400.00000 0 11108564.430 19030568.076 -12843156.475 10 0 60345 33300.00000 0 11710512.516 20324450.736 -10015570.549 10 0 60345 34200.00000 0 12279765.070 21233341.977 -6993364.153 10 0 60345 35100.00000 0 12756727.181 21751688.165 -3835266.126 10 0 60345 36000.00000 0 13083374.312 21887591.806 -602645.286 10 0 60345 36900.00000 0 13205894.000 21662308.727 2641685.118 10 0 60345 37800.00000 0 13077161.647 21109208.520 5834691.064 10 0 60345 38700.00000 0 12658945.117 20272242.817 8914345.231 10 0 60345 39600.00000 0 11923744.303 19203986.764 11820833.940 10 0 60345 40500.00000 0 10856187.327 17963336.901 14497719.726 10 0 60345 41400.00000 0 9453923.762 16612962.986 16893036.795 10 0 60345 42300.00000 0 7727976.535 15216621.438 18960298.059 10 0 60345 43200.00000 0 5702536.942 13836443.558 20659394.437 10 0 60345 44100.00000 0 3414210.470 12530312.421 21957369.412 10 0 60345 45000.00000 0 910744.146 11349438.317 22829054.319 10 0 60345 45900.00000 0 -1750712.451 10336233.938 23257552.687 10 0 60345 46800.00000 0 -4505741.034 9522577.802 23234564.792 10 0 60345 47700.00000 0 -7285095.483 8928537.977 22760546.566 10 0 60345 48600.00000 0 -10017349.317 8561608.890 21844700.084 10 0 60345 49500.00000 0 -12631640.755 8416492.550 20504795.797 10 0 60345 50400.00000 0 -15060402.207 8475432.819 18766829.840 10 0 60345 51300.00000 0 -17241961.598 8709088.298 16664522.643 10 0 60345 52200.00000 0 -19122908.092 9077906.835 14238668.087 10 0 60345 53100.00000 0 -20660124.258 9533943.692 11536345.287 10 0 60345 54000.00000 0 -21822400.522 10023046.644 8610007.773 10 0 60345 54900.00000 0 -22591564.894 10487315.784 5516467.337 10 0 60345 55800.00000 0 -22963081.123 10867734.014 2315792.057 10 0 60345 56700.00000 0 -22946090.584 11106856.848 -929860.152 10 0 60345 57600.00000 0 -22562896.552 11151447.432 -4157449.702 10 0 60345 58500.00000 0 -21847912.883 10954944.829 -7304281.379 10 0 60345 59400.00000 0 -20846121.752 10479660.530 -10309224.124 10 0 60345 60300.00000 0 -19611105.691 9698609.544 -13113900.440 10 0 60345 61200.00000 0 -18202737.135 8596897.820 -15663821.973 10 0 60345 62100.00000 0 -16684622.960 7172606.425 -17909448.969 10 0 60345 63000.00000 0 -15121411.688 5437134.094 -19807152.988 10 0 60345 63900.00000 0 -13576076.621 3414982.561 -21320064.204 10 0 60345 64800.00000 0 -12107288.944 1142992.412 -22418787.074 10 0 60345 65700.00000 0 -10766990.845 -1330939.824 -23081970.736 10 0 60345 66600.00000 0 -9598270.138 -3949610.908 -23296723.342 10 0 60345 67500.00000 0 -8633625.041 -6648654.657 -23058862.537 10 0 60345 68400.00000 0 -7893691.362 -9358991.941 -22372997.323 10 0 60345 69300.00000 0 -7386484.885 -12009485.791 -21252439.732 10 0 60345 70200.00000 0 -7107190.190 -14529691.913 -19718947.868 10 0 60345 71100.00000 0 -7038504.159 -16852590.760 -17802305.015 10 0 60345 72000.00000 0 -7151519.226 -18917187.865 -15539742.637 10 0 60345 72900.00000 0 -7407108.654 -20670874.461 -12975218.137 10 0 60345 73800.00000 0 -7757754.974 -22071450.275 -10158561.051 10 0 60345 74700.00000 0 -8149743.950 -23088724.230 -7144504.128 10 0 60345 75600.00000 0 -8525630.883 -23705626.488 -3991618.102 10 0 60345 76500.00000 0 -8826874.451 -23918785.648 -761170.979 10 0 60345 77400.00000 0 -8996526.088 -23738547.383 2484065.574 10 0 60345 78300.00000 0 -8981860.468 -23188434.347 5681039.137 10 0 60345 79200.00000 0 -8736835.150 -22304070.726 8767644.429 10 0 60345 80100.00000 0 -8224274.668 -21131617.372 11683931.841 10 0 60345 81000.00000 0 -7417686.102 -19725783.987 14373272.732 10 0 60345 81900.00000 0 -6302628.736 -18147502.544 16783458.658 10 0 60345 82800.00000 0 -4877579.388 -16461360.120 18867713.180 10 0 60345 83700.00000 0 -3154256.178 -14732899.196 20585596.828 10 0 60345 84600.00000 0 -1157386.301 -13025898.626 21903788.093 10 0 60345 85500.00000 0 1076073.380 -11399749.025 22796725.809 10 0 60346 0.00000 0 3498231.085 -9907032.107 23247101.088 10 0 60346 900.00000 0 6052018.567 -8591403.806 23246189.962 10 0 60346 1800.00000 0 8673337.736 -7485870.915 22794020.257 10 0 60346 2700.00000 0 11293511.470 -6611529.736 21899370.519 10 0 60346 3600.00000 0 13841934.527 -5976820.650 20579600.361 10 0 60346 4500.00000 0 16248816.451 -5577328.160 18860315.669 10 0 60346 5400.00000 0 18447903.016 -5396134.134 16774874.737 10 0 60346 6300.00000 0 20379063.635 -5404708.799 14363744.393 10 0 60346 7200.00000 0 21990637.401 -5564301.530 11673718.095 10 0 60346 8100.00000 0 23241440.357 -5827772.463 8757010.631 10 0 60346 9000.00000 0 24102350.399 -6141787.394 5670246.604 10 0 60346 9900.00000 0 24557403.701 -6449283.003 2473362.099 10 0 60346 10800.00000 0 24604356.934 -6692097.882 -771559.156 10 0 60346 11700.00000 0 24254691.811 -6813657.717 -4001492.455 10 0 60346 12600.00000 0 23533061.973 -6761600.499 -7153697.810 10 0 60346 13500.00000 0 22476205.620 -6490230.124 -10166940.525 10 0 60346 14400.00000 0 21131369.811 -5962693.848 -12982682.573 10 0 60346 15300.00000 0 19554312.883 -5152790.722 -15546221.236 10 0 60346 16200.00000 0 17806969.076 -4046333.735 -17807752.712 10 0 60346 17100.00000 0 15954873.581 -2642007.108 -19723339.938 10 0 60346 18000.00000 0 14064456.077 -951681.560 -21255765.892 10 0 60346 18900.00000 0 12200316.151 999826.963 -22375255.992 10 0 60346 19800.00000 0 10422594.502 3175546.241 -23060055.865 10 0 60346 20700.00000 0 8784549.624 5527652.659 -23296853.521 10 0 60346 21600.00000 0 7330440.898 7999238.682 -23081037.995 10 0 60346 22500.00000 0 6093805.995 10526470.334 -22416789.559 10 0 60346 23400.00000 0 5096204.026 13041045.707 -21316999.750 10 0 60346 24300.00000 0 4346476.267 15472852.860 -19803022.620 10 0 60346 25200.00000 0 3840554.637 17752717.091 -17904261.732 10 0 60346 26100.00000 0 3561825.184 19815123.479 -15657600.598 10 0 60346 27000.00000 0 3482030.483 21600801.492 -13106687.231 10 0 60346 27900.00000 0 3562672.190 23059063.986 -10301086.403 10 0 60346 28800.00000 0 3756853.919 24149802.882 -7295315.896 10 0 60346 29700.00000 0 4011485.857 24845058.193 -4147785.465 10 0 60346 30600.00000 0 4269757.293 25130094.746 -919659.268 10 0 60346 31500.00000 0 4473771.712 25003941.678 2326335.749 10 0 60346 32400.00000 0 4567232.252 24479372.365 5527131.902 10 0 60346 33300.00000 0 4498063.154 23582326.045 8620549.022 10 0 60346 34200.00000 0 4220855.577 22350795.906 11546504.488 10 0 60346 35100.00000 0 3699033.664 20833230.875 14248181.177 10 0 60346 36000.00000 0 2906648.699 19086518.684 16673130.451 10 0 60346 36900.00000 0 1829724.949 17173635.247 18774288.686 10 0 60346 37800.00000 0 467099.802 15161059.123 20510887.888 10 0 60346 38700.00000 0 -1169277.892 13116059.376 21849243.097 10 0 60346 39600.00000 0 -3054604.655 11103970.116 22763401.844 10 0 60346 40500.00000 0 -5152024.543 9185565.191 23235643.671 10 0 60346 41400.00000 0 -7413944.104 7414642.018 23256820.598 10 0 60346 42300.00000 0 -9783806.285 5835914.605 22826532.395 10 0 60346 43200.00000 0 -12198250.354 4483302.731 21953133.525 10 0 60346 44100.00000 0 -14589568.942 3378687.667 20653571.696 10 0 60346 45000.00000 0 -16888360.741 2531185.412 18953060.982 10 0 60346 45900.00000 0 -19026269.254 1936966.810 16884595.503 10 0 60346 46800.00000 0 -20938694.134 1579631.183 14488312.594 10 0 60346 47700.00000 0 -22567362.502 1431116.967 11810717.288 10 0 60346 48600.00000 0 -23862653.242 1453110.397 8903782.649 10 0 60346 49500.00000 0 -24785577.274 1598892.322 5823942.980 10 0 60346 50400.00000 0 -25309330.960 1815544.733 2630999.245 10 0 60346 51300.00000 0 -25420357.511 2046423.335 -613042.106 10 0 60346 52200.00000 0 -25118871.788 2233791.158 -3845174.251 10 0 60346 53100.00000 0 -24418826.373 2321501.239 -7002615.313 10 0 60346 54000.00000 0 -23347320.294 2257614.314 -10024029.734 10 0 60346 54900.00000 0 -21943475.186 1996840.071 -12850721.564 10 0 60346 55800.00000 0 -20256826.101 1502698.006 -15427776.153 10 0 60346 56700.00000 0 -18345294.552 749305.757 -17705127.827 10 0 60346 57600.00000 0 -16272828.753 -277281.484 -19638532.752 10 0 60346 58500.00000 0 -14106809.930 -1578237.921 -21190428.143 10 0 60346 59400.00000 0 -11915333.110 -3141676.601 -22330661.343 10 0 60346 60300.00000 0 -9764475.838 -4942914.756 -23037074.908 10 0 60346 61200.00000 0 -7715668.600 -6945285.089 -23295936.613 10 0 60346 62100.00000 0 -5823276.235 -9101460.254 -23102206.277 10 0 60346 63000.00000 0 -4132490.671 -11355236.329 -22459634.360 10 0 60346 63900.00000 0 -2677622.259 -13643701.816 -21380690.403 10 0 60346 64800.00000 0 -1480860.244 -15899702.522 -19886322.548 10 0 60346 65700.00000 0 -551553.272 -18054500.211 -18005552.500 10 0 60346 66600.00000 0 113960.843 -20040514.490 -15774913.472 10 0 60346 67500.00000 0 531969.953 -21794033.772 -13237741.614 10 0 60346 68400.00000 0 730464.193 -23257782.136 -10443334.394 10 0 60346 69300.00000 0 747714.172 -24383234.663 -7445992.092 10 0 60346 70200.00000 0 630411.647 -25132584.234 -4303961.000 10 0 60346 71100.00000 0 431452.091 -25480277.218 -1078299.020 10 0 60346 72000.00000 0 207453.765 -25414053.558 2168313.937 10 0 60346 72900.00000 0 16119.068 -24935447.587 5372797.160 10 0 60346 73800.00000 0 -86449.364 -24059728.670 8472897.731 10 0 60346 74700.00000 0 -48363.482 -22815284.338 11408402.084 10 0 60346 75600.00000 0 175615.692 -21242472.128 14122306.590 10 0 60346 76500.00000 0 621927.488 -19391988.549 16561924.251 10 0 60346 77400.00000 0 1316436.282 -17322823.864 18679905.931 10 0 60346 78300.00000 0 2273106.929 -15099888.467 20435156.551 10 0 60346 79200.00000 0 3493187.304 -12791410.140 21793628.858 10 0 60346 80100.00000 0 4964932.979 -10466210.754 22728979.916 10 0 60346 81000.00000 0 6663886.353 -8190975.665 23223078.174 10 0 60346 81900.00000 0 8553699.415 -6027629.007 23266351.871 10 0 60346 82800.00000 0 10587466.645 -4030923.485 22857972.473 10 0 60346 83700.00000 0 12709513.362 -2246344.099 22005869.865 10 0 60346 84600.00000 0 14857565.890 -708412.072 20726579.076 10 0 60346 85500.00000 0 16965213.884 560541.388 19044921.344 99